Timestamp (UTC),Height (m)
2024-04-18T15:15:00Z,0.94
2024-04-18T15:30:00Z,0.95
2024-04-18T15:45:00Z,0.95
2024-04-18T16:00:00Z,0.95
2024-04-18T16:15:00Z,0.95
2024-04-18T16:30:00Z,0.95
2024-04-18T16:45:00Z,0.94
2024-04-18T17:00:00Z,0.95
2024-04-18T17:15:00Z,0.95
2024-04-18T17:30:00Z,0.94
2024-04-18T17:45:00Z,0.95
2024-04-18T18:00:00Z,0.94
2024-04-18T18:15:00Z,0.95
2024-04-18T18:30:00Z,0.95
2024-04-18T18:45:00Z,0.95
2024-04-18T19:00:00Z,1.07
2024-04-18T19:15:00Z,1.19
2024-04-18T19:30:00Z,1.25
2024-04-18T19:45:00Z,1.38
2024-04-18T20:00:00Z,1.38
2024-04-18T20:15:00Z,1.41
2024-04-18T20:30:00Z,1.41
2024-04-18T20:45:00Z,1.37
2024-04-18T21:00:00Z,1.36
2024-04-18T21:15:00Z,1.27
2024-04-18T21:30:00Z,1.23
2024-04-18T21:45:00Z,1.17
2024-04-18T22:00:00Z,1.13
2024-04-18T22:15:00Z,1.11
2024-04-18T22:30:00Z,1.08
2024-04-18T22:45:00Z,1.07
2024-04-18T23:00:00Z,1.06
2024-04-18T23:15:00Z,1.04
2024-04-18T23:30:00Z,1.04
2024-04-18T23:45:00Z,1.03
2024-04-19T00:00:00Z,1.02
2024-04-19T00:15:00Z,1.01
2024-04-19T00:30:00Z,1.00
2024-04-19T00:45:00Z,0.99
2024-04-19T01:00:00Z,0.99
2024-04-19T01:15:00Z,0.98
2024-04-19T01:30:00Z,0.98
2024-04-19T01:45:00Z,0.97
2024-04-19T02:00:00Z,0.96
2024-04-19T02:15:00Z,0.96
2024-04-19T02:30:00Z,0.95
2024-04-19T02:45:00Z,0.96
2024-04-19T03:00:00Z,0.95
2024-04-19T03:15:00Z,0.95
2024-04-19T03:30:00Z,0.96
2024-04-19T03:45:00Z,0.95
2024-04-19T04:00:00Z,0.95
2024-04-19T04:15:00Z,0.95
2024-04-19T04:30:00Z,0.95
2024-04-19T04:45:00Z,0.95
2024-04-19T05:00:00Z,0.95
2024-04-19T05:15:00Z,0.95
2024-04-19T05:30:00Z,0.95
2024-04-19T05:45:00Z,0.95
2024-04-19T06:00:00Z,0.95
2024-04-19T06:15:00Z,0.95
2024-04-19T06:30:00Z,0.95
2024-04-19T06:45:00Z,0.95
2024-04-19T07:00:00Z,0.95
2024-04-19T07:15:00Z,0.99
2024-04-19T07:30:00Z,1.16
2024-04-19T07:45:00Z,1.27
2024-04-19T08:00:00Z,1.39
2024-04-19T08:15:00Z,1.46
2024-04-19T08:30:00Z,1.50
2024-04-19T08:45:00Z,1.51
2024-04-19T09:00:00Z,1.45
2024-04-19T09:15:00Z,1.43
2024-04-19T09:30:00Z,1.40
2024-04-19T09:45:00Z,1.35
2024-04-19T10:00:00Z,1.26
2024-04-19T10:15:00Z,1.20
2024-04-19T10:30:00Z,1.15
2024-04-19T10:45:00Z,1.12
2024-04-19T11:00:00Z,1.09
2024-04-19T11:15:00Z,1.08
2024-04-19T11:30:00Z,1.06
2024-04-19T11:45:00Z,1.05
2024-04-19T12:00:00Z,1.04
2024-04-19T12:15:00Z,1.03
2024-04-19T12:30:00Z,1.02
2024-04-19T12:45:00Z,1.01
2024-04-19T13:00:00Z,1.00
2024-04-19T13:15:00Z,0.99
2024-04-19T13:30:00Z,0.99
2024-04-19T13:45:00Z,0.98
2024-04-19T14:00:00Z,0.98
2024-04-19T14:15:00Z,0.98
2024-04-19T14:30:00Z,0.97
2024-04-19T14:45:00Z,0.96
2024-04-19T15:00:00Z,0.96
2024-04-19T15:15:00Z,0.96
2024-04-19T15:30:00Z,0.95
2024-04-19T15:45:00Z,0.96
2024-04-19T16:00:00Z,0.95
2024-04-19T16:15:00Z,0.96
2024-04-19T16:30:00Z,0.95
2024-04-19T16:45:00Z,0.96
2024-04-19T17:00:00Z,0.96
2024-04-19T17:15:00Z,0.95
2024-04-19T17:30:00Z,0.95
2024-04-19T17:45:00Z,0.96
2024-04-19T18:00:00Z,0.95
2024-04-19T18:15:00Z,0.95
2024-04-19T18:30:00Z,0.95
2024-04-19T18:45:00Z,0.95
2024-04-19T19:00:00Z,1.13
2024-04-19T19:15:00Z,1.29
2024-04-19T19:30:00Z,1.47
2024-04-19T19:45:00Z,1.64
2024-04-19T20:00:00Z,1.76
2024-04-19T20:15:00Z,1.87
2024-04-19T20:30:00Z,1.93
2024-04-19T20:45:00Z,1.98
2024-04-19T21:00:00Z,1.98
2024-04-19T21:15:00Z,1.98
2024-04-19T21:30:00Z,1.94
2024-04-19T21:45:00Z,1.89
2024-04-19T22:00:00Z,1.84
2024-04-19T22:15:00Z,1.78
2024-04-19T22:30:00Z,1.69
2024-04-19T22:45:00Z,1.57
2024-04-19T23:00:00Z,1.45
2024-04-19T23:15:00Z,1.31
2024-04-19T23:30:00Z,1.21
2024-04-19T23:45:00Z,1.15
2024-04-20T00:00:00Z,1.12
2024-04-20T00:15:00Z,1.09
2024-04-20T00:30:00Z,1.07
2024-04-20T00:45:00Z,1.06
2024-04-20T01:00:00Z,1.04
2024-04-20T01:15:00Z,1.03
2024-04-20T01:30:00Z,1.02
2024-04-20T01:45:00Z,1.01
2024-04-20T02:00:00Z,1.00
2024-04-20T02:15:00Z,0.99
2024-04-20T02:30:00Z,0.98
2024-04-20T02:45:00Z,0.98
2024-04-20T03:00:00Z,0.97
2024-04-20T03:15:00Z,0.96
2024-04-20T03:30:00Z,0.96
2024-04-20T03:45:00Z,0.96
2024-04-20T04:00:00Z,0.96
2024-04-20T04:15:00Z,0.96
2024-04-20T04:30:00Z,0.95
2024-04-20T04:45:00Z,0.96
2024-04-20T05:00:00Z,0.96
2024-04-20T05:15:00Z,0.96
2024-04-20T05:30:00Z,0.95
2024-04-20T05:45:00Z,0.95
2024-04-20T06:00:00Z,0.95
2024-04-20T06:15:00Z,0.95
2024-04-20T06:30:00Z,0.95
2024-04-20T06:45:00Z,0.95
2024-04-20T07:00:00Z,0.95
2024-04-20T07:15:00Z,0.95
2024-04-20T07:30:00Z,0.95
2024-04-20T07:45:00Z,0.95
2024-04-20T08:00:00Z,1.05
2024-04-20T08:15:00Z,1.18
2024-04-20T08:30:00Z,1.28
2024-04-20T08:45:00Z,1.42
2024-04-20T09:00:00Z,1.51
2024-04-20T09:15:00Z,1.55
2024-04-20T09:30:00Z,1.54
2024-04-20T09:45:00Z,1.51
2024-04-20T10:00:00Z,1.47
2024-04-20T10:15:00Z,1.41
2024-04-20T10:30:00Z,1.35
2024-04-20T10:45:00Z,1.29
2024-04-20T11:00:00Z,1.22
2024-04-20T11:15:00Z,1.15
2024-04-20T11:30:00Z,1.12
2024-04-20T11:45:00Z,1.09
2024-04-20T12:00:00Z,1.07
2024-04-20T12:15:00Z,1.06
2024-04-20T12:30:00Z,1.05
2024-04-20T12:45:00Z,1.04
2024-04-20T13:00:00Z,1.02
2024-04-20T13:15:00Z,1.01
2024-04-20T13:30:00Z,1.00
2024-04-20T13:45:00Z,0.99
2024-04-20T14:00:00Z,0.99
2024-04-20T14:15:00Z,0.97
2024-04-20T14:30:00Z,0.97
2024-04-20T14:45:00Z,0.96
2024-04-20T15:00:00Z,0.96
2024-04-20T15:15:00Z,0.96
2024-04-20T15:30:00Z,0.96
2024-04-20T15:45:00Z,0.96
2024-04-20T16:00:00Z,0.96
2024-04-20T16:15:00Z,0.95
2024-04-20T16:30:00Z,0.96
2024-04-20T16:45:00Z,0.96
2024-04-20T17:00:00Z,0.95
2024-04-20T17:15:00Z,0.96
2024-04-20T17:30:00Z,0.95
2024-04-20T17:45:00Z,0.95
2024-04-20T18:00:00Z,0.95
2024-04-20T18:15:00Z,0.95
2024-04-20T18:30:00Z,0.95
2024-04-20T18:45:00Z,0.96
2024-04-20T19:00:00Z,0.95
2024-04-20T19:15:00Z,0.95
2024-04-20T19:30:00Z,0.95
2024-04-20T19:45:00Z,0.95
2024-04-20T20:00:00Z,0.95
2024-04-20T20:15:00Z,1.14
2024-04-20T20:30:00Z,1.28
2024-04-20T20:45:00Z,1.42
2024-04-20T21:00:00Z,1.58
2024-04-20T21:15:00Z,1.67
2024-04-20T21:30:00Z,1.74
2024-04-20T21:45:00Z,1.77
2024-04-20T22:00:00Z,1.73
2024-04-20T22:15:00Z,1.70
2024-04-20T22:30:00Z,1.65
2024-04-20T22:45:00Z,1.59
2024-04-20T23:00:00Z,1.53
2024-04-20T23:15:00Z,1.44
2024-04-20T23:30:00Z,1.35
2024-04-20T23:45:00Z,1.24
2024-04-21T00:00:00Z,1.17
2024-04-21T00:15:00Z,1.13
2024-04-21T00:30:00Z,1.10
2024-04-21T00:45:00Z,1.08
2024-04-21T01:00:00Z,1.06
2024-04-21T01:15:00Z,1.05
2024-04-21T01:30:00Z,1.04
2024-04-21T01:45:00Z,1.02
2024-04-21T02:00:00Z,1.02
2024-04-21T02:15:00Z,1.00
2024-04-21T02:30:00Z,1.00
2024-04-21T02:45:00Z,0.99
2024-04-21T03:00:00Z,0.98
2024-04-21T03:15:00Z,0.97
2024-04-21T03:30:00Z,0.97
2024-04-21T03:45:00Z,0.96
2024-04-21T04:00:00Z,0.96
2024-04-21T04:15:00Z,0.95
2024-04-21T04:30:00Z,0.96
2024-04-21T04:45:00Z,0.95
2024-04-21T05:00:00Z,0.96
2024-04-21T05:15:00Z,0.95
2024-04-21T05:30:00Z,0.95
2024-04-21T05:45:00Z,0.96
2024-04-21T06:00:00Z,0.95
2024-04-21T06:15:00Z,0.96
2024-04-21T06:30:00Z,0.96
2024-04-21T06:45:00Z,0.95
2024-04-21T07:00:00Z,0.95
2024-04-21T07:15:00Z,0.95
2024-04-21T07:30:00Z,0.95
2024-04-21T07:45:00Z,0.95
2024-04-21T08:00:00Z,0.95
2024-04-21T08:15:00Z,0.95
2024-04-21T08:30:00Z,1.15
2024-04-21T08:45:00Z,1.26
2024-04-21T09:00:00Z,1.42
2024-04-21T09:15:00Z,1.56
2024-04-21T09:30:00Z,1.64
2024-04-21T09:45:00Z,1.70
2024-04-21T10:00:00Z,1.71
2024-04-21T10:15:00Z,1.68
2024-04-21T10:30:00Z,1.64
2024-04-21T10:45:00Z,1.57
2024-04-21T11:00:00Z,1.51
2024-04-21T11:15:00Z,1.44
2024-04-21T11:30:00Z,1.39
2024-04-21T11:45:00Z,1.27
2024-04-21T12:00:00Z,1.19
2024-04-21T12:15:00Z,1.14
2024-04-21T12:30:00Z,1.10
2024-04-21T12:45:00Z,1.08
2024-04-21T13:00:00Z,1.06
2024-04-21T13:15:00Z,1.05
2024-04-21T13:30:00Z,1.04
2024-04-21T13:45:00Z,1.02
2024-04-21T14:00:00Z,1.01
2024-04-21T14:15:00Z,1.00
2024-04-21T14:30:00Z,1.00
2024-04-21T14:45:00Z,0.98
2024-04-21T15:00:00Z,0.97
2024-04-21T15:15:00Z,0.96
2024-04-21T15:30:00Z,0.96
2024-04-21T15:45:00Z,0.96
2024-04-21T16:00:00Z,0.96
2024-04-21T16:15:00Z,0.95
2024-04-21T16:30:00Z,0.96
2024-04-21T16:45:00Z,0.95
2024-04-21T17:00:00Z,0.95
2024-04-21T17:15:00Z,0.96
2024-04-21T17:30:00Z,0.95
2024-04-21T17:45:00Z,0.95
2024-04-21T18:00:00Z,0.96
2024-04-21T18:15:00Z,0.96
2024-04-21T18:30:00Z,0.95
2024-04-21T18:45:00Z,0.96
2024-04-21T19:00:00Z,0.95
2024-04-21T19:15:00Z,0.95
2024-04-21T19:30:00Z,0.95
2024-04-21T19:45:00Z,0.95
2024-04-21T20:00:00Z,0.95
2024-04-21T20:15:00Z,0.95
2024-04-21T20:30:00Z,0.96
2024-04-21T20:45:00Z,1.04
2024-04-21T21:00:00Z,1.26
2024-04-21T21:15:00Z,1.40
2024-04-21T21:30:00Z,1.57
2024-04-21T21:45:00Z,1.69
2024-04-21T22:00:00Z,1.75
2024-04-21T22:15:00Z,1.78
2024-04-21T22:30:00Z,1.74
2024-04-21T22:45:00Z,1.72
2024-04-21T23:00:00Z,1.65
2024-04-21T23:15:00Z,1.58
2024-04-21T23:30:00Z,1.53
2024-04-21T23:45:00Z,1.45
2024-04-22T00:00:00Z,1.36
2024-04-22T00:15:00Z,1.24
2024-04-22T00:30:00Z,1.17
2024-04-22T00:45:00Z,1.13
2024-04-22T01:00:00Z,1.10
2024-04-22T01:15:00Z,1.08
2024-04-22T01:30:00Z,1.06
2024-04-22T01:45:00Z,1.05
2024-04-22T02:00:00Z,1.03
2024-04-22T02:15:00Z,1.02
2024-04-22T02:30:00Z,1.01
2024-04-22T02:45:00Z,1.01
2024-04-22T03:00:00Z,1.00
2024-04-22T03:15:00Z,0.99
2024-04-22T03:30:00Z,0.98
2024-04-22T03:45:00Z,0.97
2024-04-22T04:00:00Z,0.97
2024-04-22T04:15:00Z,0.96
2024-04-22T04:30:00Z,0.96
2024-04-22T04:45:00Z,0.96
2024-04-22T05:00:00Z,0.95
2024-04-22T05:15:00Z,0.96
2024-04-22T05:30:00Z,0.95
2024-04-22T05:45:00Z,0.96
2024-04-22T06:00:00Z,0.95
2024-04-22T06:15:00Z,0.96
2024-04-22T06:30:00Z,0.96
2024-04-22T06:45:00Z,0.95
2024-04-22T07:00:00Z,0.95
2024-04-22T07:15:00Z,0.95
2024-04-22T07:30:00Z,0.95
2024-04-22T07:45:00Z,0.95
2024-04-22T08:00:00Z,0.95
2024-04-22T08:15:00Z,0.95
2024-04-22T08:30:00Z,0.95
2024-04-22T08:45:00Z,0.95
2024-04-22T09:00:00Z,1.09
2024-04-22T09:15:00Z,1.26
2024-04-22T09:30:00Z,1.42
2024-04-22T09:45:00Z,1.58
2024-04-22T10:00:00Z,1.68
2024-04-22T10:15:00Z,1.76
2024-04-22T10:30:00Z,1.77
2024-04-22T10:45:00Z,1.74
2024-04-22T11:00:00Z,1.70
2024-04-22T11:15:00Z,1.63
2024-04-22T11:30:00Z,1.59
2024-04-22T11:45:00Z,1.52
2024-04-22T12:00:00Z,1.44
2024-04-22T12:15:00Z,1.34
2024-04-22T12:30:00Z,1.23
2024-04-22T12:45:00Z,1.17
2024-04-22T13:00:00Z,1.13
2024-04-22T13:15:00Z,1.10
2024-04-22T13:30:00Z,1.08
2024-04-22T13:45:00Z,1.06
2024-04-22T14:00:00Z,1.05
2024-04-22T14:15:00Z,1.03
2024-04-22T14:30:00Z,1.02
2024-04-22T14:45:00Z,1.02
2024-04-22T15:00:00Z,1.01
2024-04-22T15:15:00Z,1.00
2024-04-22T15:30:00Z,0.99
2024-04-22T15:45:00Z,0.98
2024-04-22T16:00:00Z,0.97
2024-04-22T16:15:00Z,0.97
2024-04-22T16:30:00Z,0.96
2024-04-22T16:45:00Z,0.96
2024-04-22T17:00:00Z,0.95
2024-04-22T17:15:00Z,0.96
2024-04-22T17:30:00Z,0.96
2024-04-22T17:45:00Z,0.96
2024-04-22T18:00:00Z,0.95
2024-04-22T18:15:00Z,0.95
2024-04-22T18:30:00Z,0.95
2024-04-22T18:45:00Z,0.96
2024-04-22T19:00:00Z,0.95
2024-04-22T19:15:00Z,0.96
2024-04-22T19:30:00Z,0.95
2024-04-22T19:45:00Z,0.95
2024-04-22T20:00:00Z,0.95
2024-04-22T20:15:00Z,0.95
2024-04-22T20:30:00Z,0.95
2024-04-22T20:45:00Z,0.95
2024-04-22T21:00:00Z,0.99
2024-04-22T21:15:00Z,1.28
2024-04-22T21:30:00Z,1.44
2024-04-22T21:45:00Z,1.65
2024-04-22T22:00:00Z,1.79
2024-04-22T22:15:00Z,1.91
2024-04-22T22:30:00Z,1.98
2024-04-22T22:45:00Z,1.99
2024-04-22T23:00:00Z,1.96
2024-04-22T23:15:00Z,1.91
2024-04-22T23:30:00Z,1.84
2024-04-22T23:45:00Z,1.77
2024-04-23T00:00:00Z,1.70
2024-04-23T00:15:00Z,1.63
2024-04-23T00:30:00Z,1.52
2024-04-23T00:45:00Z,1.38
2024-04-23T01:00:00Z,1.25
2024-04-23T01:15:00Z,1.18
2024-04-23T01:30:00Z,1.13
2024-04-23T01:45:00Z,1.10
2024-04-23T02:00:00Z,1.08
2024-04-23T02:15:00Z,1.07
2024-04-23T02:30:00Z,1.05
2024-04-23T02:45:00Z,1.04
2024-04-23T03:00:00Z,1.03
2024-04-23T03:15:00Z,1.02
2024-04-23T03:30:00Z,1.01
2024-04-23T03:45:00Z,0.99
2024-04-23T04:00:00Z,0.99
2024-04-23T04:15:00Z,0.98
2024-04-23T04:30:00Z,0.97
2024-04-23T04:45:00Z,0.96
2024-04-23T05:00:00Z,0.96
2024-04-23T05:15:00Z,0.96
2024-04-23T05:30:00Z,0.96
2024-04-23T05:45:00Z,0.96
2024-04-23T06:00:00Z,0.96
2024-04-23T06:15:00Z,0.96
2024-04-23T06:30:00Z,0.95
2024-04-23T06:45:00Z,0.96
2024-04-23T07:00:00Z,0.95
2024-04-23T07:15:00Z,0.95
2024-04-23T07:30:00Z,0.96
2024-04-23T07:45:00Z,0.96
2024-04-23T08:00:00Z,0.96
2024-04-23T08:15:00Z,0.95
2024-04-23T08:30:00Z,0.95
2024-04-23T08:45:00Z,0.95
2024-04-23T09:00:00Z,0.95
2024-04-23T09:15:00Z,0.95
2024-04-23T09:30:00Z,1.21
2024-04-23T09:45:00Z,1.36
2024-04-23T10:00:00Z,1.54
2024-04-23T10:15:00Z,1.71
2024-04-23T10:30:00Z,1.82
2024-04-23T10:45:00Z,1.91
2024-04-23T11:00:00Z,1.90
2024-04-23T11:15:00Z,1.89
2024-04-23T11:30:00Z,1.83
2024-04-23T11:45:00Z,1.76
2024-04-23T12:00:00Z,1.69
2024-04-23T12:15:00Z,1.62
2024-04-23T12:30:00Z,1.53
2024-04-23T12:45:00Z,1.44
2024-04-23T13:00:00Z,1.31
2024-04-23T13:15:00Z,1.21
2024-04-23T13:30:00Z,1.15
2024-04-23T13:45:00Z,1.12
2024-04-23T14:00:00Z,1.09
2024-04-23T14:15:00Z,1.08
2024-04-23T14:30:00Z,1.06
2024-04-23T14:45:00Z,1.04